Location: Rotheul
(50.2849°N, 11.2349°E)
Time: 11:44:36
(UTC+02:00)

ISS - Pass Details

Date: 25 May 2018
Orbit: 402 x 407 km, 51.6° (Epoch: 27 May)

Event Time Altitude Azimuth Distance (km) Brightness Sun altitude
Rises 23:35:28 0° 273° (W) 2,320 0.4 -15.5°
Reaches altitude 10° 23:37:33 10° 276° (W) 1,460 -0.6 -15.7°
Maximum altitude 23:40:49 66° 360° (N) 444 -3.5 -15.9°
Drops below altitude 10° 23:44:04 10° 84° (E) 1,458 -1.2 -16.0°
Enters shadow 23:44:37 - 85° (E) 1,684 -0.9 -16.1°
